If you wish to contribute or participate in the discussions about articles you are invited to join SKYbrary as a registered user

 Actions

Takamatsu Airport

From SKYbrary Wiki

RJOT
Airport
ICAO: RJOT – IATA: TAK
Summary
Name Takamatsu Airport
Region Asia and Pacific
Territory Japan JP.gif
Location Takamatsu, Kagawa
Serving Takamatsu
Elevation 185.014 m
607 ft
607 ft185.014 m
Coordinates 34° 13' 7.19" N, 134° 1' 7.75" E
Runways
Designator Length Width Surface ROPS
8/26 2499 m8,198.819 ft
61 m200.131 ft
ASP yes/yes


METAR
Observation RJOT 170200Z VRB03KT 9999 FEW025 BKN035 26/19 Q1011
Station Takamatsu Airport
Date/Time 17 September 2019 02:00:00
Wind direction °
Wind speed 03 kts
Lowest cloud amount few clouds
Temperature 26°C
Dew point 19°C
Humidity 65%
QNH 1011 hPa
Weather condition n/a

Takamatsu Airport is a second class airport located 8 NM south southwest of Takamatsu, Kagawa, Japan. It handles a very small number of international flights.

Climatology

Humid “subtropical” climate (Köppen climate classification Cfa) - characterized by hot, humid summers and cool winters. Significant amounts of precipitation occur in all seasons in most areas. Winter rainfall (and sometimes snowfall) is associated with large storms that the westerlies steer from west to east. Most summer rainfall occurs during thunderstorms.

Maps

Terrain

Loading map...

Airport Layout

Loading map...


Accidents & Serious Incidents at or in vicinity of RJOT

None on SKYbrary